Skip Page Navigation
NASA JPL Caltech
NASA Logo - Jet Propulsion Laboratory + View the NASA Portal
+ Near-Earth Object (NEO) Program
Search JPL
JPL Home Earth Solar System Stars & Galaxies Technology
JPL Solar System Dynamics
BODIES ORBITS EPHEMERIDES TOOLS PHYSICAL DATA DISCOVERY FAQ SITE MAP
JPL Small-Body Database Browser
Search: [ help ]  
143992 (2004 AF)
Classification: Apollo [NEO, PHA]          SPK-ID: 2143992
Ephemeris | Orbit Diagram | Orbital Elements | Physical Parameters | Discovery Circumstances | Close-Approach Data ]

[ hide orbit diagram ]
Orbit Diagram
Note: Make sure you have Java enabled on your browser to see the applet. This applet is provided as a 3D orbit visualization tool. The applet was implemented using 2-body methods, and hence should not be used for determining accurate long-term trajectories (over several years or decades) or planetary encounter circumstances. For accurate long-term ephemerides, please instead use our Horizons system.
Orbit Viewer

Additional Notes: the orbits shown in the applet are color coded. The planets are white lines, and the asteroid/comet is a blue line. The bright white line indicates the portion of the orbit that is above the ecliptic plane, and the darker portion is below the ecliptic plane. Likewise for the asteroid/comet orbit, the light blue indicates the portion above the ecliptic plane, and the dark blue the portion below the ecliptic plane.

Orbit Viewer applet originally written and kindly provided by Osamu Ajiki (AstroArts), and further modified by Ron Baalke (JPL).


Orbital Elements at Epoch 2456400.5 (2013-Apr-18.0) TDB
Reference: JPL 67 (heliocentric ecliptic J2000)
 Element Value Uncertainty (1-sigma)   Units 
e .5532374321350867 1.9401e-07  
a 1.971065592060566 4.1193e-08 AU
q .8805983253391539 3.7775e-07 AU
i 27.16157045363277 1.5319e-05 deg
node 315.764326474733 1.8464e-05 deg
peri 57.84167674151789 2.6351e-05 deg
M 149.5574174253738 4.3223e-05 deg
tp 2455980.590695197045
(2012-Feb-23.09069520)
0.00010838 JED
period 1010.764643649274
2.77
3.1686e-05
8.675e-08
d
yr
n .3561659999307581 1.1165e-08 deg/d
Q 3.061532858781977 6.3983e-08 AU
  Orbit Determination Parameters
   # obs. used (total)      393  
   data-arc span      10252 days (28.07 yr)  
   first obs. used      1985-01-21  
   last obs. used      2013-02-15  
   planetary ephem.      DE405  
   SB-pert. ephem.      SB405-CPV-2  
   condition code      0  
   fit RMS      .56804  
   data source      ORB  
   producer      Otto Matic  
   solution date      2013-Apr-29 15:39:08  

Additional Information
 Earth MOID = .0339853 AU 
 T_jup = 3.552 
[ show covariance matrix ]

Ephemeris | Orbit Diagram | Orbital Elements | Physical Parameters | Discovery Circumstances | Close-Approach Data ]

Physical Parameter Table
Parameter Symbol Value Units Sigma Reference Notes
absolute magnitude H 15.945 mag .50315 67 autocmod 2.5c

143992 (2004 AF)          Discovered 2004-Jan-05 by LINEAR at Socorro (704)
Reference: 20061205/Numbers.arcLast Updated: 2006-12-13

[ show close-approach data ]
Ephemeris | Orbit Diagram | Orbital Elements | Physical Parameters | Discovery Circumstances | Close-Approach Data ]
ABOUT SSD CREDITS/AWARDS PRIVACY/COPYRIGHT GLOSSARY LINKS
FirstGov 2013-May-25 16:51 UT
(server date/time)  
NASA Home Page
Site Manager:   Donald K. Yeomans
Webmaster  Alan B. Chamberlin